User: anonymous   Login
Location: Chatham
(39.6760°N, 89.7040°W)
Time: 03:16:51
(UTC-06:00)
Language:

NOSS 3-1 (C) - Orbit

View from above orbital plane
View from above orbital plane
View from above satellite
View from above satellite

Ground track
Ground track

The orbit data is extracted from the following two-line orbital elements,

1 26907U 01040C   14350.72871597 0.00000000  00000-0  00000-0 0    01
2 26907  63.4213 201.5041 0289000 357.8463   2.1537 13.41216474    04
Epoch (UTC): 16 December 2014 17:29:21
Eccentricity: 0.0289000
inclination: 63.4213°
perigee height: 888 km
apogee height: 1321 km
right ascension of ascending node: 201.5041°
argument of perigee: 357.8463°
revolutions per day: 13.41216474
mean anomaly at epoch: 2.1537°
orbit number at epoch: 0

The dashed part of the orbit path shows where the satellite is in the earth's shadow,  

DLR